Radiation Dose at Monitoring Post of Fukushima Daini Nuclear Power Station
Date,Time,MP-1(microSv/h),MP-2(microSv/h),MP-3(microSv/h),MP-4(microSv/h),MP-5(microSv/h),MP-6(microSv/h),MP-7(microSv/h),Wind Direction,Wind Velocity(m/s),Rain
2021/07/15,00:00,0.158,0.146,0.229,0.223,0.227,0.123,0.078,northwest,3.1,No
2021/07/15,00:10,0.159,0.145,0.229,0.222,0.230,0.124,0.078,northwest,2.8,No
2021/07/15,00:20,0.159,0.146,0.229,0.224,0.228,0.124,0.078,north-northwest,2.5,No
2021/07/15,00:30,0.157,0.145,0.229,0.223,0.228,0.124,0.078,northwest,2.8,No
2021/07/15,00:40,0.160,0.145,0.228,0.224,0.230,0.124,0.078,north-northwest,2.9,No
2021/07/15,00:50,0.158,0.146,0.230,0.224,0.226,0.124,0.077,north-northwest,2.3,No
2021/07/15,01:00,0.157,0.146,0.229,0.221,0.229,0.123,0.078,north-northwest,2.3,No
2021/07/15,01:10,0.159,0.146,0.230,0.225,0.229,0.125,0.078,north,1.7,No
2021/07/15,01:20,0.159,0.146,0.230,0.223,0.227,0.124,0.078,north-northwest,1.6,No
2021/07/15,01:30,0.158,0.145,0.228,0.221,0.231,0.123,0.078,northwest,1.1,No
2021/07/15,01:40,0.159,0.146,0.229,0.225,0.229,0.124,0.078,north-northwest,2.1,No
2021/07/15,01:50,0.158,0.147,0.230,0.222,0.227,0.124,0.078,northwest,2.6,No
2021/07/15,02:00,0.158,0.145,0.229,0.222,0.230,0.124,0.078,northwest,2.2,No
2021/07/15,02:10,0.160,0.147,0.229,0.224,0.229,0.124,0.078,northwest,2.7,No
2021/07/15,02:20,0.158,0.145,0.227,0.222,0.228,0.123,0.078,north-northwest,2.6,No
2021/07/15,02:30,0.159,0.146,0.230,0.224,0.230,0.124,0.078,north-northwest,2.4,No
2021/07/15,02:40,0.159,0.146,0.229,0.223,0.226,0.124,0.078,north-northwest,2.9,No
2021/07/15,02:50,0.158,0.145,0.229,0.222,0.231,0.123,0.079,north,2.4,No
2021/07/15,03:00,0.160,0.147,0.231,0.224,0.229,0.125,0.078,north-northwest,2.9,No
2021/07/15,03:10,0.158,0.146,0.228,0.223,0.228,0.124,0.078,north-northwest,2.9,No
2021/07/15,03:20,0.159,0.146,0.231,0.224,0.231,0.124,0.079,north-northwest,2.9,No
2021/07/15,03:30,0.159,0.146,0.229,0.224,0.228,0.125,0.078,north-northwest,3.0,No
2021/07/15,03:40,0.157,0.146,0.229,0.221,0.230,0.124,0.079,north-northwest,2.6,No
2021/07/15,03:50,0.160,0.146,0.230,0.224,0.230,0.124,0.078,north-northwest,2.5,No
2021/07/15,04:00,0.159,0.146,0.227,0.222,0.228,0.124,0.079,north-northwest,3.4,No
2021/07/15,04:10,0.158,0.146,0.231,0.223,0.230,0.124,0.079,north,3.5,No
2021/07/15,04:20,0.160,0.146,0.228,0.223,0.229,0.124,0.078,north,3.4,No
2021/07/15,04:30,0.158,0.147,0.231,0.222,0.229,0.124,0.079,north-northwest,2.5,No
2021/07/15,04:40,0.160,0.146,0.229,0.224,0.229,0.124,0.079,north-northwest,2.2,No
2021/07/15,04:50,0.159,0.146,0.229,0.222,0.226,0.125,0.078,north-northwest,2.9,No
2021/07/15,05:00,0.158,0.146,0.230,0.224,0.231,0.123,0.079,north-northwest,2.6,No
2021/07/15,05:10,0.160,0.146,0.228,0.223,0.229,0.124,0.078,north-northwest,3.3,No
2021/07/15,05:20,0.159,0.146,0.229,0.222,0.228,0.124,0.079,north-northwest,2.8,No
2021/07/15,05:30,0.158,0.147,0.229,0.224,0.230,0.123,0.078,north,1.8,No
2021/07/15,05:40,0.159,0.146,0.229,0.224,0.229,0.123,0.078,north-northwest,1.2,No
2021/07/15,05:50,0.159,0.146,0.230,0.223,0.228,0.124,0.078,north-northwest,1.4,No
2021/07/15,06:00,0.157,0.147,0.229,0.225,0.232,0.123,0.079,north-northwest,1.7,No
2021/07/15,06:10,0.160,0.146,0.229,0.223,0.228,0.124,0.078,north-northwest,2.2,No
2021/07/15,06:20,0.158,0.147,0.231,0.223,0.229,0.125,0.078,north-northwest,2.1,No
2021/07/15,06:30,0.158,0.147,0.228,0.226,0.231,0.124,0.079,northwest,0.8,No
2021/07/15,06:40,0.160,0.145,0.230,0.223,0.229,0.125,0.078,north-northeast,1.2,No
2021/07/15,06:50,0.158,0.146,0.230,0.222,0.228,0.124,0.078,-,CALM,No
2021/07/15,07:00,0.159,0.146,0.229,0.224,0.230,0.123,0.078,northeast,1.0,No
2021/07/15,07:10,0.160,0.145,0.231,0.222,0.228,0.124,0.077,north,1.0,No
2021/07/15,07:20,0.158,0.145,0.231,0.222,0.226,0.124,0.078,-,CALM,No
2021/07/15,07:30,0.158,0.146,0.227,0.222,0.231,0.124,0.078,-,CALM,No
2021/07/15,07:40,0.160,0.145,0.230,0.223,0.229,0.123,0.077,north,0.9,No
2021/07/15,07:50,0.158,0.147,0.230,0.223,0.227,0.124,0.078,north-northeast,1.8,No
2021/07/15,08:00,0.158,0.146,0.228,0.223,0.229,0.124,0.078,north-northeast,1.0,No
2021/07/15,08:10,0.160,0.145,0.229,0.222,0.230,0.123,0.077,north-northeast,1.0,No
2021/07/15,08:20,0.158,0.146,0.229,0.221,0.229,0.124,0.078,northeast,0.7,No
2021/07/15,08:30,0.158,0.146,0.229,0.221,0.227,0.124,0.078,northeast,1.0,No
2021/07/15,08:40,0.158,0.145,0.227,0.224,0.230,0.124,0.078,northeast,1.4,No
2021/07/15,08:50,0.159,0.145,0.230,0.222,0.230,0.124,0.078,north-northeast,1.7,No
2021/07/15,09:00,0.158,0.146,0.230,0.221,0.228,0.124,0.079,east-northeast,1.4,No
2021/07/15,09:10,0.157,0.146,0.227,0.224,0.226,0.125,0.078,northeast,1.2,No
2021/07/15,09:20,0.159,0.145,0.229,0.223,0.230,0.123,0.077,northeast,1.3,No
2021/07/15,09:30,0.157,0.147,0.231,0.222,0.230,0.123,0.078,east,0.8,No
2021/07/15,09:40,0.157,0.146,0.230,0.221,0.227,0.124,0.078,northeast,1.0,No
2021/07/15,09:50,0.157,0.146,0.229,0.220,0.227,0.124,0.078,east-northeast,1.2,No
2021/07/15,10:00,0.157,0.145,0.228,0.221,0.227,0.124,0.078,east-northeast,1.1,No
2021/07/15,10:10,0.157,0.145,0.228,0.221,0.227,0.124,0.078,east-northeast,1.0,No
2021/07/15,10:20,0.158,0.145,0.226,0.221,0.226,0.124,0.077,east-southeast,0.6,No
2021/07/15,10:30,0.160,0.145,0.227,0.220,0.227,0.123,0.077,east,1.4,No
2021/07/15,10:40,0.159,0.145,0.228,0.221,0.228,0.124,0.077,east,1.8,No
2021/07/15,10:50,0.158,0.145,0.227,0.221,0.228,0.123,0.078,east,2.2,No
2021/07/15,11:00,0.158,0.145,0.228,0.222,0.228,0.124,0.079,east,2.3,No
2021/07/15,11:10,0.158,0.145,0.228,0.223,0.228,0.125,0.077,east,2.6,No
2021/07/15,11:20,0.157,0.146,0.228,0.222,0.228,0.125,0.078,east-southeast,2.1,No
2021/07/15,11:30,0.157,0.146,0.230,0.222,0.228,0.125,0.077,east,2.8,No
2021/07/15,11:40,0.157,0.146,0.229,0.224,0.228,0.124,0.078,east-southeast,2.5,No
2021/07/15,11:50,0.157,0.146,0.229,0.222,0.229,0.123,0.078,southeast,2.2,No
2021/07/15,12:00,0.158,0.146,0.230,0.223,0.229,0.124,0.078,southeast,2.1,No
2021/07/15,12:10,0.159,0.146,0.230,0.223,0.230,0.124,0.078,southeast,1.9,No
2021/07/15,12:20,0.157,0.145,0.230,0.222,0.229,0.124,0.078,east-southeast,2.6,No
2021/07/15,12:30,0.159,0.146,0.229,0.222,0.229,0.124,0.078,east-southeast,2.9,No
2021/07/15,12:40,0.158,0.145,0.230,0.222,0.230,0.123,0.078,southeast,3.7,No
2021/07/15,12:50,0.158,0.145,0.229,0.223,0.230,0.124,0.077,south-southeast,3.8,No
2021/07/15,13:00,0.158,0.146,0.229,0.224,0.229,0.124,0.077,southeast,4.3,No
2021/07/15,13:10,0.158,0.146,0.230,0.224,0.230,0.123,0.078,south-southeast,4.0,No
2021/07/15,13:20,0.159,0.146,0.229,0.223,0.228,0.125,0.078,southeast,3.1,No
2021/07/15,13:30,0.158,0.147,0.228,0.224,0.231,0.124,0.077,south-southeast,4.0,No
2021/07/15,13:40,0.158,0.147,0.230,0.222,0.229,0.125,0.078,south-southeast,4.7,No
2021/07/15,13:50,0.160,0.146,0.231,0.223,0.229,0.124,0.078,south-southeast,6.1,No
2021/07/15,14:00,0.159,0.146,0.231,0.224,0.229,0.125,0.078,south-southeast,5.8,No
2021/07/15,14:10,0.159,0.147,0.231,0.224,0.229,0.126,0.078,south-southeast,6.0,No
2021/07/15,14:20,0.159,0.146,0.231,0.224,0.230,0.125,0.078,south-southeast,5.8,No
2021/07/15,14:30,0.159,0.147,0.231,0.224,0.229,0.125,0.077,south-southeast,5.8,No
2021/07/15,14:40,0.159,0.146,0.231,0.224,0.229,0.124,0.078,south-southeast,6.0,No
2021/07/15,14:50,0.159,0.147,0.231,0.223,0.229,0.125,0.078,south-southeast,4.7,No
2021/07/15,15:00,0.159,0.146,0.231,0.222,0.230,0.124,0.078,south-southeast,4.5,No
2021/07/15,15:10,0.158,0.146,0.230,0.222,0.228,0.125,0.078,south-southeast,4.9,No
2021/07/15,15:20,0.159,0.145,0.229,0.222,0.228,0.125,0.078,south-southeast,6.6,No
2021/07/15,15:30,0.159,0.145,0.231,0.224,0.229,0.125,0.078,south-southeast,6.2,No
2021/07/15,15:40,0.158,0.147,0.231,0.226,0.228,0.125,0.078,south-southeast,5.6,No
2021/07/15,15:50,0.158,0.148,0.234,0.226,0.228,0.124,0.078,south-southeast,5.0,No
2021/07/15,16:00,0.158,0.146,0.232,0.224,0.229,0.125,0.079,south-southeast,5.1,No
2021/07/15,16:10,0.159,0.146,0.231,0.223,0.232,0.126,0.078,south,5.5,No
2021/07/15,16:20,0.160,0.146,0.230,0.221,0.230,0.125,0.078,south-southeast,5.4,No
2021/07/15,16:30,0.160,0.147,0.229,0.226,0.229,0.124,0.078,south-southeast,4.4,No
2021/07/15,16:40,0.158,0.147,0.231,0.225,0.229,0.124,0.079,south-southeast,5.3,No
2021/07/15,16:50,0.158,0.147,0.233,0.224,0.228,0.125,0.078,south-southeast,4.7,No
2021/07/15,17:00,0.159,0.146,0.231,0.223,0.229,0.125,0.078,south-southeast,4.8,No
2021/07/15,17:10,0.161,0.147,0.229,0.224,0.232,0.124,0.078,south-southeast,5.4,No
2021/07/15,17:20,0.160,0.148,0.231,0.227,0.229,0.124,0.079,south-southeast,5.6,No
2021/07/15,17:30,0.158,0.146,0.233,0.225,0.228,0.124,0.078,south-southeast,6.1,No
2021/07/15,17:40,0.158,0.147,0.231,0.224,0.230,0.125,0.078,south-southeast,6.0,No
2021/07/15,17:50,0.160,0.147,0.230,0.226,0.233,0.125,0.078,south,5.8,No
2021/07/15,18:00,0.160,0.148,0.231,0.227,0.230,0.124,0.078,south-southeast,5.5,No
2021/07/15,18:10,0.159,0.147,0.234,0.225,0.227,0.125,0.078,south-southeast,6.0,No
2021/07/15,18:20,0.158,0.147,0.231,0.223,0.227,0.125,0.078,south,5.5,No
2021/07/15,18:30,0.158,0.147,0.229,0.226,0.233,0.125,0.079,south,4.6,No
2021/07/15,18:40,0.160,0.148,0.230,0.225,0.231,0.124,0.079,south-southeast,4.7,No
2021/07/15,18:50,0.160,0.147,0.233,0.224,0.229,0.125,0.078,south,4.8,No
2021/07/15,19:00,0.158,0.147,0.231,0.225,0.231,0.126,0.078,south,5.1,No
2021/07/15,19:10,0.159,0.148,0.230,0.226,0.232,0.124,0.079,south,4.7,No
2021/07/15,19:20,0.161,0.146,0.233,0.225,0.229,0.124,0.078,south,4.5,No
2021/07/15,19:30,0.160,0.146,0.232,0.225,0.228,0.125,0.078,south,4.6,No
2021/07/15,19:40,0.159,0.148,0.230,0.226,0.232,0.124,0.078,south,5.0,No
2021/07/15,19:50,0.160,0.146,0.232,0.225,0.231,0.125,0.077,south,5.3,No
2021/07/15,20:00,0.161,0.146,0.232,0.224,0.228,0.125,0.078,south,6.1,No
2021/07/15,20:10,0.158,0.148,0.231,0.227,0.232,0.124,0.079,south,5.4,No
2021/07/15,20:20,0.159,0.148,0.233,0.225,0.231,0.124,0.078,south,5.4,No
2021/07/15,20:30,0.161,0.147,0.231,0.224,0.228,0.125,0.078,south,5.3,No
2021/07/15,20:40,0.159,0.148,0.229,0.227,0.231,0.125,0.079,south,4.7,No
2021/07/15,20:50,0.159,0.146,0.233,0.226,0.231,0.126,0.078,south-southwest,4.8,No
2021/07/15,21:00,0.160,0.146,0.232,0.224,0.227,0.126,0.079,south,4.0,No
2021/07/15,21:10,0.160,0.148,0.231,0.227,0.231,0.124,0.079,south-southwest,1.9,No
2021/07/15,21:20,0.158,0.147,0.232,0.225,0.231,0.125,0.078,south-southwest,1.3,No
2021/07/15,21:30,0.160,0.147,0.232,0.225,0.230,0.126,0.078,south,2.0,No
2021/07/15,21:40,0.159,0.148,0.231,0.227,0.229,0.124,0.079,south-southwest,1.8,No
2021/07/15,21:50,0.158,0.147,0.233,0.224,0.232,0.124,0.079,south-southwest,2.1,No
2021/07/15,22:00,0.160,0.147,0.231,0.224,0.229,0.125,0.078,south-southwest,1.6,No
2021/07/15,22:10,0.160,0.147,0.232,0.226,0.230,0.125,0.079,south-southwest,1.7,No
2021/07/15,22:20,0.158,0.146,0.233,0.226,0.232,0.125,0.080,south-southwest,1.5,No
2021/07/15,22:30,0.160,0.148,0.232,0.225,0.230,0.126,0.079,southwest,0.6,No
2021/07/15,22:40,0.162,0.148,0.231,0.227,0.230,0.125,0.080,-,CALM,No
2021/07/15,22:50,0.160,0.148,0.234,0.224,0.233,0.125,0.080,south,0.8,No
2021/07/15,23:00,0.161,0.148,0.231,0.225,0.231,0.126,0.078,south,1.1,No
2021/07/15,23:10,0.161,0.148,0.233,0.228,0.231,0.126,0.079,south-southeast,1.3,No
2021/07/15,23:20,0.160,0.147,0.234,0.225,0.232,0.125,0.080,south-southeast,1.4,No
2021/07/15,23:30,0.160,0.149,0.231,0.228,0.230,0.126,0.079,south-southeast,0.6,No
2021/07/15,23:40,0.161,0.148,0.234,0.227,0.229,0.126,0.080,south,0.6,No
2021/07/15,23:50,0.159,0.148,0.232,0.224,0.233,0.125,0.079,south-southwest,1.2,No
